ISS OBJECT YC

Last updated on Thu Mar 19 2026 00:02:09 GMT+0000 (Coordinated Universal Time)

1 67686U 98067YC 26077.08177038 .00042990 00000+0 66325-3 0 9997 2 67686 51.6325 29.9492 0008542 181.6034 178.4931 15.53669122 6092
UTC large
Height (km)
Speed (km/s)
/
Latitude / Longitude
Inclination (degrees)
Orbital Period (minutes)
Azimuth
Elevation
Range (km)
Doppler Factor

Next 0 passes for location: London (51.5072 / 0.1276)

No passes found over London.
ISS OBJECT YC